Back to catalog

OBJECT A

AliveHEO
NORAD 100125·UNKNOWN·🇺🇸 United States

Launched Jul 21, 2026 from Cape Canaveral Space Force Station

Loading…

Next Passes (next 24 hours)

TLE

FreshSource: Space-Track

Epoch: Sep 8, 2026, 01:41 UTC

1 A0125U 26167A   26251.07072669  .00000269  00000-0  34696-1 0  9999
2 A0125  24.2385  86.6268 7570047 201.8331  89.9616  1.67714659   845

Track OBJECT A in real time with AllMySat

Download on the App Store